Regional Weather Roundup
Issued by NWS

Home | Current Version | Previous Version | Text Only | Print | Product List | Glossary Off
Versions: 1 2 3 4 5 6 7 8 9 10 11 12 13 14 15 16 17 18 19 20 21 22 23 24 25 26 27 28 29 30 31 32 33 34 35 36 37 38 39 40 41 42 43 44 45 46 47 48 49 50

000
ASUS43 KLSX 302257
RWRMO

WEATHER SUMMARY FOR MISSOURI
NATIONAL WEATHER SERVICE SPRINGFIELD MO
600 PM CDT MON MAY 30 2016

NOTE: "FAIR" INDICATES FEW OR NO CLOUDS BELOW 12,000 FEET WITH NO
       SIGNIFICANT WEATHER AND/OR OBSTRUCTIONS TO VISIBILITY.
       CURRENT SKY AND/OR WEATHER CONDITIONS ARE NOT AVAILABLE FOR
       CHILLICOTHE AND FARMINGTON.

MOZ001>031-035>038-043-044-053-054-310000-
...NORTHERN AND WESTERN MISSOURI...

CITY           SKY/WX    TMP DP  RH WIND       PRES   REMARKS
KANSAS CTY INT CLOUDY    76  65  68 S15       29.95F
LEE`S SUMMIT   CLOUDY    73  60  63 S13       29.99F
ST JOSEPH      LGT RAIN  75  65  70 SE15      29.94S
CHILLICOTHE      N/A     77  63  61 S20G30    29.98R

$$
MOZ066>068-077>081-088>096-101>105-310000-
...SOUTHWEST MISSOURI...

CITY           SKY/WX    TMP DP  RH WIND       PRES   REMARKS
SPRINGFIELD    CLOUDY    71  59  65 NE12      30.02F
JOPLIN         LGT RAIN  69  67  93 E6        30.02S
BRANSON        LGT RAIN  68  66  94 CALM      30.06R

$$
MOZ032>034-039>042-045>050-055>058-069>072-310000-
...CENTRAL MISSOURI...

CITY           SKY/WX    TMP DP  RH WIND       PRES   REMARKS
COLUMBIA       CLOUDY    73  63  68 W18       30.01R
JEFFERSON CITY CLOUDY    72  60  66 W9        30.02R
ROLLA          CLOUDY    72  63  73 W18G25    30.01R
SEDALIA        CLOUDY    67  63  87 S6        30.01F
WARRENSBURG    DRIZZLE   63  61  94 S14       29.99F

$$
MOZ051-052-059>065-310000-
...EAST CENTRAL MISSOURI...

CITY           SKY/WX    TMP DP  RH WIND       PRES   REMARKS
ST LOUIS INTL  CLOUDY    79  55  43 SW8       30.01R

$$
MOZ072>076-082>087-097>100-106>115-310000-
...SOUTH CENTRAL AND SOUTHEAST MISSOURI...

CITY           SKY/WX    TMP DP  RH WIND       PRES   REMARKS
CAPE GIRARDEAU CLOUDY    83  63  50 S3        29.97F
POPLAR BLUFF   PTSUNNY   83  62  49 SW5       29.98F
WEST PLAINS    LGT RAIN  66  63  90 NE6       30.05F

$$



USA.gov is the U.S. government's official web portal to all federal, state and local government web resources and services.